Tracking 29892 objects as of 21-Nov-2024
HD Live streaming from Space Station
objects crossing your sky now

STARLINK-5061

Track STARLINK-5061 now!
10-day predictions
STARLINK-5061 is classified as:


NORAD ID: 54847
Int'l Code: 2022-177AD
Perigee: 565.6 km
Apogee: 567.2 km
Inclination: 43.0 °
Period: 95.8 minutes
Semi major axis: 6937 km
RCS: Unknown
Launch date: December 28, 2022
Source: United States (US)
Launch site: AIR FORCE EASTERN TEST RANGE (AFETR)
Your satellite tracking list
Your tracking list is empty




NASA's NSSDC Master Catalog

Two Line Element Set (TLE):
1 54847U 22177AD  24325.87697024  .00013859  00000-0  10407-2 0  9996
2 54847  43.0012 161.7064 0001198 278.6830  81.3876 15.02471941105001
Source of the keplerian elements: AFSPC